TimeEDT,TemperatureF,Dew PointF,Humidity,Sea Level PressureIn,VisibilityMPH,Wind Direction,Wind SpeedMPH,Gust SpeedMPH,PrecipitationIn,Events,Conditions,WindDirDegrees,DateUTC
12:03 AM,69.8,59.0,68,29.90,10.0,SSW,4.6,-,N/A,,Clear,210,2013-10-07 04:03:00
12:23 AM,69.8,60.8,73,29.90,10.0,SSW,3.5,-,N/A,,Clear,210,2013-10-07 04:23:00
12:43 AM,69.8,60.8,73,29.89,10.0,South,4.6,-,N/A,,Clear,190,2013-10-07 04:43:00
1:03 AM,69.8,60.8,73,29.88,10.0,SSW,4.6,-,N/A,,Clear,200,2013-10-07 05:03:00
1:23 AM,69.8,60.8,73,29.87,10.0,SSW,5.8,-,N/A,,Clear,200,2013-10-07 05:23:00
1:43 AM,69.8,60.8,73,29.87,10.0,SSW,3.5,-,N/A,,Clear,200,2013-10-07 05:43:00
2:03 AM,69.8,62.6,78,29.86,10.0,SSW,4.6,-,N/A,,Clear,200,2013-10-07 06:03:00
2:23 AM,69.8,62.6,78,29.86,10.0,SSW,6.9,-,N/A,,Clear,200,2013-10-07 06:23:00
2:44 AM,69.8,62.6,78,29.86,10.0,South,5.8,-,N/A,,Clear,190,2013-10-07 06:44:00
3:04 AM,69.8,62.6,78,29.85,10.0,South,4.6,-,N/A,,Clear,180,2013-10-07 07:04:00
3:24 AM,69.8,62.6,78,29.84,10.0,SSW,4.6,-,N/A,,Clear,200,2013-10-07 07:24:00
3:44 AM,69.8,62.6,78,29.84,10.0,Calm,Calm,-,N/A,,Clear,0,2013-10-07 07:44:00
4:04 AM,69.8,62.6,78,29.82,10.0,South,3.5,-,N/A,,Clear,190,2013-10-07 08:04:00
4:24 AM,69.8,62.6,78,29.82,10.0,WSW,3.5,-,N/A,,Clear,240,2013-10-07 08:24:00
4:44 AM,68.0,62.6,83,29.82,10.0,Calm,Calm,-,N/A,,Scattered Clouds,0,2013-10-07 08:44:00
5:04 AM,69.8,62.6,78,29.82,10.0,SW,3.5,-,N/A,,Mostly Cloudy,230,2013-10-07 09:04:00
5:24 AM,69.8,62.6,78,29.81,10.0,Calm,Calm,-,N/A,,Mostly Cloudy,0,2013-10-07 09:24:00
5:44 AM,69.8,62.6,78,29.80,10.0,SW,3.5,-,N/A,,Mostly Cloudy,220,2013-10-07 09:44:00
6:04 AM,69.8,62.6,78,29.80,10.0,SSW,3.5,-,N/A,,Mostly Cloudy,210,2013-10-07 10:04:00
6:24 AM,69.8,62.6,78,29.80,10.0,Calm,Calm,-,N/A,,Mostly Cloudy,0,2013-10-07 10:24:00
6:44 AM,68.0,62.6,83,29.80,10.0,West,3.5,-,N/A,,Mostly Cloudy,270,2013-10-07 10:44:00
7:04 AM,68.0,64.4,88,29.79,10.0,SSW,3.5,-,N/A,,Mostly Cloudy,210,2013-10-07 11:04:00
7:24 AM,68.0,64.4,88,29.81,1.8,West,9.2,16.1,N/A,,Overcast,260,2013-10-07 11:24:00
7:44 AM,64.4,62.6,94,29.81,5.0,East,3.5,-,N/A,,Overcast,80,2013-10-07 11:44:00
8:04 AM,64.4,62.6,94,29.83,4.0,Calm,Calm,-,N/A,,Overcast,0,2013-10-07 12:04:00
8:24 AM,62.6,59.0,88,29.84,5.0,WSW,5.8,-,N/A,,Overcast,250,2013-10-07 12:24:00
8:44 AM,60.8,55.4,82,29.84,5.0,WNW,5.8,-,N/A,,Overcast,290,2013-10-07 12:44:00
9:04 AM,60.8,55.4,82,29.85,10.0,WNW,3.5,-,N/A,,Overcast,290,2013-10-07 13:04:00
9:24 AM,60.8,53.6,77,29.87,5.0,West,15.0,20.7,N/A,,Overcast,280,2013-10-07 13:24:00
9:44 AM,59.0,53.6,82,29.88,4.0,West,9.2,19.6,N/A,,Overcast,260,2013-10-07 13:44:00
10:04 AM,59.0,53.6,82,29.88,5.0,WSW,6.9,16.1,N/A,,Overcast,240,2013-10-07 14:04:00
10:24 AM,59.0,53.6,82,29.89,7.0,Calm,Calm,-,N/A,,Overcast,0,2013-10-07 14:24:00
10:44 AM,59.0,53.6,82,29.87,7.0,Calm,Calm,-,N/A,,Overcast,0,2013-10-07 14:44:00
11:05 AM,59.0,53.6,82,29.89,10.0,Calm,Calm,-,N/A,,Overcast,0,2013-10-07 15:05:00
11:25 AM,59.0,53.6,82,29.88,10.0,Calm,Calm,-,N/A,,Overcast,0,2013-10-07 15:25:00
11:45 AM,60.8,53.6,77,29.88,10.0,Calm,Calm,-,N/A,,Overcast,0,2013-10-07 15:45:00
12:05 PM,60.8,51.8,72,29.88,10.0,East,5.8,-,N/A,,Overcast,90,2013-10-07 16:05:00
12:25 PM,60.8,53.6,77,29.88,10.0,NNW,4.6,-,N/A,,Mostly Cloudy,340,2013-10-07 16:25:00
12:45 PM,62.6,51.8,68,29.89,10.0,SW,3.5,-,N/A,,Mostly Cloudy,220,2013-10-07 16:45:00
1:05 PM,62.6,50.0,63,29.90,10.0,WNW,9.2,-,N/A,,Mostly Cloudy,290,2013-10-07 17:05:00
1:25 PM,62.6,50.0,63,29.90,10.0,WSW,13.8,21.9,N/A,,Mostly Cloudy,240,2013-10-07 17:25:00
1:45 PM,62.6,48.2,59,29.91,10.0,WNW,15.0,32.2,N/A,,Mostly Cloudy,290,2013-10-07 17:45:00
2:05 PM,62.6,46.4,55,29.93,10.0,West,10.4,23.0,N/A,,Scattered Clouds,260,2013-10-07 18:05:00
2:25 PM,62.6,46.4,55,29.93,10.0,West,12.7,20.7,N/A,,Scattered Clouds,270,2013-10-07 18:25:00
2:45 PM,64.4,44.6,49,29.93,10.0,West,11.5,20.7,N/A,,Scattered Clouds,260,2013-10-07 18:45:00
3:05 PM,66.2,44.6,46,29.94,10.0,WSW,10.4,24.2,N/A,,Scattered Clouds,240,2013-10-07 19:05:00
3:25 PM,62.6,42.8,48,29.96,10.0,West,11.5,28.8,N/A,,Mostly Cloudy,260,2013-10-07 19:25:00
3:45 PM,62.6,42.8,48,29.97,10.0,West,9.2,19.6,N/A,,Scattered Clouds,270,2013-10-07 19:45:00
4:05 PM,62.6,41.0,45,29.99,10.0,WSW,10.4,20.7,N/A,,Scattered Clouds,240,2013-10-07 20:05:00
4:25 PM,62.6,41.0,45,29.99,10.0,WSW,11.5,21.9,N/A,,Scattered Clouds,250,2013-10-07 20:25:00
4:45 PM,62.6,41.0,45,29.99,10.0,West,3.5,-,N/A,,Scattered Clouds,280,2013-10-07 20:45:00
5:05 PM,62.6,41.0,45,29.99,10.0,West,11.5,16.1,N/A,,Scattered Clouds,270,2013-10-07 21:05:00
5:25 PM,62.6,41.0,45,30.00,10.0,West,13.8,23.0,N/A,,Scattered Clouds,270,2013-10-07 21:25:00
5:45 PM,62.6,41.0,45,30.01,10.0,West,6.9,-,N/A,,Clear,270,2013-10-07 21:45:00
6:05 PM,60.8,41.0,48,30.02,10.0,West,10.4,17.3,N/A,,Clear,270,2013-10-07 22:05:00
6:25 PM,60.8,41.0,48,30.02,10.0,West,8.1,-,N/A,,Clear,270,2013-10-07 22:25:00
6:45 PM,60.8,41.0,48,30.04,10.0,West,9.2,-,N/A,,Clear,270,2013-10-07 22:45:00
7:05 PM,60.8,41.0,48,30.05,10.0,West,9.2,-,N/A,,Clear,260,2013-10-07 23:05:00
7:25 PM,59.0,41.0,51,30.06,10.0,West,4.6,-,N/A,,Clear,280,2013-10-07 23:25:00
7:45 PM,59.0,41.0,51,30.07,10.0,West,5.8,-,N/A,,Clear,280,2013-10-07 23:45:00
8:06 PM,59.0,41.0,51,30.08,10.0,WNW,4.6,-,N/A,,Clear,290,2013-10-08 00:06:00
8:26 PM,59.0,41.0,51,30.09,10.0,WNW,3.5,-,N/A,,Clear,300,2013-10-08 00:26:00
8:46 PM,57.2,41.0,55,30.11,10.0,West,3.5,-,N/A,,Clear,270,2013-10-08 00:46:00
9:06 PM,57.2,41.0,55,30.12,10.0,Calm,Calm,-,N/A,,Clear,0,2013-10-08 01:06:00
9:26 PM,55.4,42.8,63,30.12,10.0,WSW,3.5,-,N/A,,Clear,250,2013-10-08 01:26:00
9:46 PM,55.4,42.8,63,30.13,10.0,Calm,Calm,-,N/A,,Clear,0,2013-10-08 01:46:00
10:06 PM,53.6,42.8,67,30.14,10.0,Calm,Calm,-,N/A,,Clear,0,2013-10-08 02:06:00
10:26 PM,53.6,44.6,72,30.14,10.0,Calm,Calm,-,N/A,,Clear,0,2013-10-08 02:26:00
10:46 PM,51.8,44.6,76,30.15,10.0,Calm,Calm,-,N/A,,Clear,0,2013-10-08 02:46:00
11:06 PM,51.8,44.6,76,30.15,10.0,NW,3.5,-,N/A,,Clear,310,2013-10-08 03:06:00
11:26 PM,53.6,42.8,67,30.15,10.0,NW,8.1,-,N/A,,Clear,310,2013-10-08 03:26:00
11:46 PM,55.4,42.8,63,30.15,10.0,WNW,8.1,-,N/A,,Clear,290,2013-10-08 03:46:00